Theta_e
314 314 314 314 313 314 313 313 313 313 313 313 313 313 313 313 313 313 313 313 313 313 312 312 312 312 312 312 313 313 313 314 314 314 315 316 317 317 317 317 317 317
314 314 314 314 313 313 313 313 313 313 313 313 313 313 313 313 313 313 313 313 313 313 313 313 312 312 312 312 312 312 312 312 313 313 313 313 313 314 314 314 315 315
313 313 313 313 313 313 313 313 313 313 313 313 313 313 313 313 313 313 313 313 313 313 313 313 313 312 312 312 312 312 312 312 312 312 312 312 312 312 312 312 312 312
313 313 313 313 313 313 313 313 313 313 313 313 313 312 312 312 312 312 312 312 312 312 312 312 312 312 312 312 312 312 312 312 312 312 311 311 311 311 311 311 311 311
313 313 313 313 313 313 312 312 312 312 311 311 311 310 310 310 310 310 310 310 310 310 311 311 311 311 311 311 311 311 312 311 311 311 311 311 311 311 311 311 311 311
313 312 312 311 311 311 310 310 309 309 309 308 308 308 307 307 307 307 307 307 307 307 307 308 308 309 309 309 310 310 310 310 311 311 311 311 311 311 311 311 311 311
311 310 310 309 309 309 308 308 307 307 306 306 305 305 305 304 304 304 304 304 304 304 304 304 304 304 305 305 306 306 306 307 307 308 308 308 308 309 309 309 309 309
309 309 308 308 308 307 307 306 306 305 304 304 303 303 303 303 303 302 302 302 302 302 302 301 302 302 302 302 302 302 302 303 303 303 303 303 303 304 304 304 305 305
308 307 307 306 306 305 305 304 303 303 303 302 302 302 302 301 301 301 301 301 300 300 300 300 300 300 300 300 300 300 300 300 300 300 300 300 300 301 301 301 301 301
306 305 305 304 304 304 303 302 302 302 301 301 301 301 301 300 300 300 300 300 300 299 299 299 299 299 299 299 299 299 299 299 299 299 299 299 299 299 299 299 300 300
304 304 303 303 303 302 302 301 301 301 301 300 300 300 300 300 300 299 299 299 299 299 299 299 298 298 298 298 298 298 298 298 298 298 298 298 298 298 299 299 299 299
303 303 303 302 302 301 301 301 301 301 300 300 300 300 300 299 299 299 299 298 298 298 298 298 298 297 297 297 297 297 297 297 297 297 297 297 297 297 297 297 298 298
303 302 302 302 301 301 301 301 301 300 300 300 300 299 299 299 299 298 298 298 298 297 297 297 297 297 297 297 297 297 296 296 296 296 296 297 296 296 296 296 296 296
302 302 302 301 301 301 301 301 300 300 300 299 299 298 298 298 298 298 297 297 297 297 297 297 297 297 296 296 296 296 296 296 296 296 296 296 296 296 296 296 296 296
301 301 301 301 301 300 300 300 299 299 299 298 298 298 298 297 297 297 297 297 297 297 297 297 297 296 296 296 296 296 296 296 296 296 296 296 296 296 295 295 295 295
301 300 300 300 299 299 299 299 298 298 298 298 297 297 297 297 297 297 296 296 296 296 296 296 296 296 296 296 295 295 295 295 295 295 295 295 295 295 295 295 294 294
300 299 299 299 299 298 298 298 298 297 297 297 297 297 296 296 296 296 296 296 296 296 296 296 296 296 296 295 295 295 295 295 295 295 295 294 294 294 294 294 294 294
299 299 298 298 298 298 297 297 297 297 296 296 296 296 296 296 296 296 296 296 296 296 296 296 295 295 295 295 295 294 294 294 294 294 294 294 294 293 293 293 293 293
298 298 298 297 297 297 297 297 296 296 296 296 296 296 296 296 296 295 295 295 295 295 295 295 295 295 295 295 294 294 294 293 293 294 294 294 293 293 293 292 293 293
298 297 297 297 297 296 296 296 296 296 296 296 295 295 295 295 295 295 295 295 295 295 295 295 295 295 294 294 294 294 293 293 293 293 293 293 293 292 292 292 292 293
297 297 297 297 296 296 296 296 296 295 295 295 295 295 295 295 294 294 294 294 294 294 294 294 294 294 294 294 293 293 292 292 292 292 292 292 292 292 292 292 292 294
297 297 296 296 296 296 296 295 295 295 295 295 294 294 294 294 294 294 294 294 294 294 294 294 294 294 293 293 293 292 291 291 291 291 291 292 292 292 292 292 292 294
296 296 296 296 295 295 295 295 295 294 294 294 294 294 294 293 293 293 293 293 293 293 293 293 293 293 292 292 292 291 291 291 291 291 291 291 291 291 291 292 292 293
296 295 295 295 295 294 294 294 294 293 293 293 293 293 293 293 293 293 293 293 293 292 292 292 292 293 292 292 291 291 290 290 290 290 290 290 290 291 291 292 292 292
295 295 294 294 294 293 293 293 293 292 292 292 292 292 292 292 292 292 292 292 292 292 292 291 292 292 292 291 291 291 290 290 290 290 290 290 290 290 291 292 292 292
294 294 294 293 293 293 292 292 292 292 292 291 291 291 291 291 291 291 291 291 291 291 291 291 291 291 291 291 291 291 291 290 290 290 289 290 290 290 291 291 292 292
Wind_Speed
3 2 0 1 2 3 3 4 5 6 7 7 8 9 10 11 11 12 13 14 15 16 17 19 20 22 23 25 26 28 29 29 30 30 30 30 31 32 33 34 35 37
2 1 1 2 2 3 3 4 5 6 6 7 8 8 9 10 11 12 12 13 13 13 15 16 16 18 19 21 23 25 26 27 28 29 31 32 33 33 34 35 35 36
2 1 1 1 1 2 3 3 4 5 6 7 7 8 9 10 11 12 12 13 13 14 14 14 15 16 17 18 19 21 22 23 25 26 28 30 31 33 34 35 36 37
2 1 1 2 2 3 3 4 5 6 7 8 9 9 10 11 12 13 14 14 15 15 15 16 16 17 17 18 19 20 21 21 22 24 26 27 28 29 31 32 34 36
2 2 2 2 2 3 4 5 6 7 8 9 10 11 11 12 13 14 14 15 16 16 16 17 18 18 19 20 20 21 22 23 23 24 26 27 27 28 29 30 32 33
3 3 2 2 3 4 5 6 7 8 9 10 11 11 12 13 13 14 15 15 16 16 17 17 18 18 19 20 21 22 22 23 24 25 26 28 28 29 29 31 32 33
3 3 2 3 4 5 6 7 7 9 9 10 11 12 13 14 14 15 16 16 17 17 18 18 19 19 20 21 21 22 23 24 25 26 27 28 29 30 30 31 33 34
3 2 3 3 4 5 5 6 7 8 9 10 11 12 13 14 15 16 16 17 18 18 19 19 20 20 21 22 23 24 24 25 26 27 28 29 30 31 31 32 33 34
2 2 2 2 3 4 5 6 7 8 9 10 12 13 14 15 15 16 17 18 18 19 20 20 21 22 23 24 25 25 26 27 27 29 30 31 31 32 33 33 34 36
1 1 1 2 3 5 6 7 9 10 11 12 13 14 15 16 17 18 18 19 20 21 22 22 23 24 25 26 27 28 29 30 30 31 32 33 34 34 35 35 36 37
1 1 2 4 5 7 8 10 11 12 13 14 16 16 17 18 19 20 21 21 22 23 24 25 26 27 28 29 30 31 32 33 34 35 35 36 37 38 38 38 39 39
1 2 3 5 7 8 10 11 13 14 15 16 17 18 19 20 21 22 23 24 25 26 27 27 28 30 31 32 33 34 35 36 37 38 39 40 41 42 42 42 42 42
1 3 5 6 8 10 11 13 14 16 17 18 19 21 22 23 24 25 26 27 27 28 29 30 30 31 33 34 36 37 38 40 41 42 43 44 44 45 46 46 46 46
2 4 6 8 10 11 13 15 16 18 19 20 22 23 24 25 26 27 27 28 29 30 30 31 32 33 35 37 38 40 41 42 44 45 46 47 48 48 49 49 50 50
3 6 7 9 11 13 14 16 17 19 21 22 23 25 26 27 27 28 29 29 30 31 32 32 33 35 36 38 40 42 44 45 46 48 49 50 51 51 52 52 52 52
5 7 9 10 12 14 16 17 19 21 22 24 25 26 27 28 29 30 30 31 32 32 33 33 34 35 37 39 41 43 45 47 49 50 51 52 53 54 54 54 54 54
7 9 10 12 14 16 18 20 22 24 25 26 27 28 29 30 31 31 32 32 33 34 35 35 36 37 38 40 42 43 45 47 49 51 52 53 54 55 55 56 55 55
9 11 13 15 17 19 21 23 25 26 28 29 30 30 31 31 31 32 32 33 34 35 36 37 37 38 39 40 42 43 45 47 49 51 52 53 54 55 56 56 56 56
11 13 16 18 20 22 23 25 27 28 29 30 30 31 31 32 32 33 33 34 35 36 37 38 38 39 40 41 42 44 45 47 50 51 53 54 55 55 56 56 56 57
13 15 17 19 21 23 25 26 28 29 30 31 31 32 32 33 34 34 35 36 37 38 39 40 40 40 41 42 43 45 46 48 50 52 53 54 55 55 56 56 55 55
15 17 19 21 23 25 27 28 29 30 31 32 33 34 34 35 36 37 37 38 38 40 41 42 42 42 43 44 45 46 48 49 51 52 54 55 56 56 55 55 55 54
18 20 22 24 26 27 28 30 30 31 32 34 35 36 36 37 38 39 39 40 41 42 44 45 45 45 45 46 48 49 50 51 52 54 55 56 57 57 56 56 55 55
21 23 24 26 27 28 29 30 31 32 33 35 36 37 38 39 40 41 42 43 43 44 46 48 48 48 48 49 50 51 52 53 54 55 56 58 59 58 57 57 57 56
22 24 25 26 27 28 29 30 31 32 34 35 37 38 40 41 42 43 43 44 45 45 46 48 50 49 49 50 50 51 52 53 54 55 56 57 58 58 57 57 57 57
22 24 25 26 27 28 29 30 31 33 34 35 36 38 39 41 42 43 44 44 45 45 46 47 49 49 48 48 49 49 50 51 52 54 56 56 56 57 57 57 57 57
22 23 24 25 27 28 29 30 31 32 34 35 36 38 39 41 42 43 45 46 46 47 47 48 49 49 49 49 48 48 49 50 51 52 53 54 54 55 57 58 58 57
Wind_Direction
120 118 102 326 317 312 314 314 314 318 321 325 328 330 332 332 330 330 330 327 324 320 315 311 305 300 295 291 287 284 282 281 280 278 275 274 274 276 276 277 278 279
161 190 242 269 287 299 307 315 323 329 334 340 342 342 342 342 340 337 337 337 335 332 329 325 320 315 309 303 298 295 292 290 288 286 284 282 282 281 281 281 280 279
167 181 217 292 330 342 348 352 354 352 352 352 351 348 346 344 342 340 338 337 336 335 332 330 328 324 320 316 311 307 304 301 299 296 292 290 290 289 288 287 285 283
136 122 81 47 29 18 10 2 355 348 343 342 338 336 335 333 331 330 329 327 326 326 324 323 322 319 317 316 313 312 311 309 308 305 301 300 299 297 296 294 293 291
119 97 76 56 30 13 360 349 342 338 334 334 333 333 334 333 332 330 328 327 325 323 322 319 317 315 314 313 312 311 311 310 311 310 307 307 306 305 304 303 301 300
112 95 74 46 23 7 355 348 345 341 339 340 341 341 342 341 339 337 336 335 333 331 329 327 324 322 319 317 316 315 314 313 313 311 310 309 308 308 308 307 306 305
106 85 62 34 15 4 356 350 345 342 341 341 342 342 342 340 340 339 337 336 335 334 333 331 330 328 326 325 323 322 321 319 318 316 314 313 312 311 311 310 309 308
94 63 38 19 3 354 348 342 339 339 339 340 340 340 340 339 337 336 336 335 334 333 333 332 331 330 329 328 326 325 324 322 321 320 318 317 316 315 315 314 312 311
81 45 21 6 354 345 344 344 343 344 344 344 343 342 340 339 338 338 337 336 336 335 334 334 333 332 331 330 328 327 325 324 323 322 320 320 319 318 318 317 315 314
124 68 21 1 355 351 352 352 351 350 349 346 344 342 341 339 338 338 336 336 335 335 335 334 333 332 331 330 329 327 326 325 324 323 322 321 320 320 320 319 318 317
138 53 9 358 356 355 352 350 348 346 344 341 340 338 337 336 335 334 334 333 333 333 333 333 332 331 330 329 328 327 326 325 324 323 322 322 321 321 321 320 319 319
100 8 357 352 351 349 345 342 340 338 335 334 332 332 331 331 331 331 331 331 331 331 331 331 331 330 329 328 327 326 325 324 323 322 322 321 320 320 319 319 319 318
4 344 342 342 340 337 334 332 330 329 328 328 328 327 327 327 327 327 327 328 328 328 328 328 329 328 327 327 326 325 323 322 321 320 319 318 318 317 317 317 317 317
335 334 333 332 330 328 327 326 326 326 326 326 326 325 325 325 324 324 324 324 324 324 324 325 325 325 325 324 324 323 322 320 319 318 317 316 315 315 315 314 314 314
335 332 330 330 328 327 326 325 325 325 324 324 323 323 323 322 322 322 322 321 321 322 322 322 323 323 323 323 322 321 320 319 317 316 316 315 314 313 313 313 312 312
337 333 331 330 327 326 325 324 323 322 321 321 320 320 320 320 320 321 321 321 321 321 321 321 321 322 322 321 321 320 319 317 316 315 314 314 313 312 312 311 311 311
333 330 328 327 325 325 324 323 322 321 321 320 320 320 320 320 320 320 320 320 320 320 320 319 320 321 321 320 320 319 319 317 315 314 313 313 313 312 311 311 311 311
330 328 327 326 325 324 323 322 322 321 321 320 320 320 319 318 319 318 318 319 318 317 317 317 318 319 319 318 318 318 318 316 314 313 313 312 312 312 311 311 312 312
328 327 326 324 323 323 322 322 321 321 320 319 318 317 317 316 316 316 316 316 316 315 315 314 315 317 317 317 316 316 317 316 313 312 312 311 311 311 311 311 312 312
325 324 323 322 322 322 322 322 321 320 319 318 316 316 316 315 315 315 315 315 315 315 313 313 314 315 315 315 314 314 315 314 312 311 311 310 310 310 310 310 311 311
323 323 323 323 324 324 324 323 322 320 319 317 316 316 316 316 316 315 314 315 315 314 313 312 313 314 315 314 313 313 313 312 311 310 309 309 308 309 310 310 310 310
326 327 327 327 327 326 324 323 320 319 318 317 316 316 316 316 316 315 315 315 315 315 314 312 312 314 314 313 312 312 311 310 310 309 308 308 307 308 309 309 310 310
330 331 330 328 327 324 322 320 319 319 318 317 317 316 316 316 316 315 315 316 316 316 315 313 313 313 314 314 312 312 311 310 309 308 307 306 306 308 309 309 309 309
330 330 328 325 323 321 319 319 318 318 318 317 317 317 316 316 316 315 315 315 315 316 315 314 313 313 314 314 313 312 311 310 309 307 306 305 305 306 306 306 306 307
327 325 322 320 318 317 317 317 317 317 317 317 317 317 316 316 316 316 315 314 315 315 314 314 313 313 313 314 313 312 311 310 309 308 306 306 305 304 303 303 303 303
320 318 317 315 315 315 315 317 318 317 318 317 317 318 317 316 317 317 316 315 315 315 315 314 314 314 314 314 314 313 312 311 310 309 308 307 305 303 302 301 302 302